Weather History for KPNE - March, 2014

Change the Weather History Date:

Sunday, March 16, 2014

  Actual Average Record
Temperature  
Mean Temperature 39 °F -  
Max Temperature 45 °F 47 °F 70 °F (2002)
Min Temperature 33 °F 31 °F 26 °F (1997)
Degree Days  
Heating Degree Days 26    
Moisture  
Dew Point 10 °F    
Average Humidity 33    
Maximum Humidity 47    
Minimum Humidity 21    
Precipitation  
Precipitation 0.00 in - - ()
Sea Level Pressure  
Sea Level Pressure 30.17 in    
Wind  
Wind Speed 11 mph (NNW)    
Max Wind Speed 16 mph    
Max Gust Speed 18 mph    
Visibility 10 miles    
Events      
Averages and records for this station are not official NWS values.
T = Trace of Precipitation, MM = Missing Value Source: NWS Daily Summary

Daily Weather History Graph

Daily Weather History Graph

Search for Another Location

Airport or City:

Trip Planner

Search our weather history database for the weather conditions in past years. The results will help you decide how hot, cold, wet, or windy it might be!

Date:

Astronomy

Mar. 16, 2014 Rise Set
Actual Time 7:09 AM EDT 7:07 PM EDT
Civil Twilight 6:42 AM EDT 7:34 PM EDT
Nautical Twilight 6:11 AM EDT 8:06 PM EDT
Astronomical Twilight 5:39 AM EDT 8:38 PM EDT
Moon 7:23 PM EDT (3/16) 6:52 AM EDT (3/16)
Length of Visible Light 12h 51m
Length of Day
11h 57m
Full, 100% of the Moon is Illuminated
Mar 16
Full
Mar 16
Full
Mar 23
Last Quarter
Mar 30
New
Apr 7
First Quarter

Hourly Weather History & Observations

Time (EDT) Temp. Windchill Dew Point Humidity Pressure Visibility Wind Dir Wind Speed Gust Speed Precip Events Conditions
12:54 AM 45.0 °F 39.7 °F 23.0 °F 42% 30.06 in 10.0 mi NW 10.4 mph - N/A   Clear
1:54 AM 43.0 °F 37.2 °F 23.0 °F 45% 30.08 in 10.0 mi NNW 10.4 mph - N/A   Clear
2:54 AM 42.1 °F 34.9 °F 21.0 °F 43% 30.08 in 10.0 mi NW 13.8 mph - N/A   Clear
3:54 AM 39.0 °F 32.8 °F 19.9 °F 46% 30.09 in 10.0 mi NNW 9.2 mph - N/A   Clear
4:54 AM 37.9 °F 32.1 °F 19.0 °F 47% 30.10 in 10.0 mi NNW 8.1 mph - N/A   Clear
5:54 AM 36.0 °F 29.0 °F 17.1 °F 46% 30.14 in 10.0 mi North 9.2 mph - N/A   Clear
6:54 AM 34.0 °F 26.6 °F 14.0 °F 44% 30.17 in 10.0 mi NNW 9.2 mph - N/A   Clear
7:54 AM 34.0 °F 25.5 °F 12.9 °F 42% 30.21 in 10.0 mi NNW 11.5 mph - N/A   Clear
8:54 AM 36.0 °F 26.7 °F 10.0 °F 34% 30.21 in 10.0 mi North 15.0 mph - N/A   Clear
9:54 AM 37.9 °F 29.6 °F 6.1 °F 27% 30.22 in 10.0 mi NNW 13.8 mph - N/A   Clear
10:54 AM 39.0 °F 32.3 °F 6.1 °F 26% 30.22 in 10.0 mi NNW 10.4 mph 18.4 mph N/A   Clear
11:54 AM 41.0 °F 33.5 °F 3.9 °F 21% 30.21 in 10.0 mi NNW 13.8 mph - N/A   Clear
12:54 PM 42.1 °F 35.7 °F 7.0 °F 24% 30.21 in 10.0 mi NNW 11.5 mph - N/A   Clear
1:54 PM 39.9 °F 34.5 °F 5.0 °F 23% 30.20 in 10.0 mi NNW 8.1 mph - N/A   Clear
2:54 PM 39.9 °F 32.9 °F 6.1 °F 25% 30.20 in 10.0 mi NNW 11.5 mph - N/A   Clear
3:54 PM 39.9 °F 32.1 °F 7.0 °F 26% 30.20 in 10.0 mi NNW 13.8 mph - N/A   Overcast
4:54 PM 39.0 °F 32.3 °F 6.1 °F 26% 30.20 in 10.0 mi NW 10.4 mph - N/A   Overcast
5:54 PM 39.0 °F 32.3 °F 6.1 °F 26% 30.19 in 10.0 mi North 10.4 mph - N/A   Overcast
6:54 PM 37.0 °F 29.3 °F 6.1 °F 28% 30.20 in 10.0 mi North 11.5 mph - N/A   Overcast
7:54 PM 36.0 °F 28.0 °F 6.1 °F 29% 30.20 in 10.0 mi North 11.5 mph - N/A   Overcast
8:54 PM 35.1 °F 25.2 °F 5.0 °F 28% 30.17 in 10.0 mi NNE 16.1 mph - N/A   Overcast
9:54 PM 34.0 °F 25.5 °F 5.0 °F 30% 30.16 in 10.0 mi NE 11.5 mph - N/A   Overcast
10:54 PM 33.1 °F 24.4 °F 5.0 °F 31% 30.15 in 10.0 mi NE 11.5 mph - N/A   Overcast
11:54 PM 33.1 °F 23.9 °F 5.0 °F 31% 30.14 in 10.0 mi NNE 12.7 mph - N/A   Overcast